| time (UTC) | temp C | wind direction | speed KPH | gust KPH | rain 1hr cm | rain 24hr cm | rain mn cm | humidity % | barometer mb |
| 20260510210034 | 20 | 0 | 1.6 | 6.4 | 0.00 | 0.00 | 0.00 | 48 | 1013.3 |
| 20260510204536 | 20 | 0 | 0.0 | 6.4 | 0.00 | 0.00 | 0.00 | 46 | 1013.0 |
| 20260510203039 | 21 | 270 | 3.2 | 9.7 | 0.00 | 0.00 | 0.00 | 44 | 1012.8 |
| 20260510201536 | 21 | 302 | 1.6 | 4.8 | 0.00 | 0.00 | 0.00 | 41 | 1012.4 |
| 20260510200042 | 21 | 302 | 3.2 | 8.0 | 0.00 | 0.00 | 0.00 | 39 | 1012.0 |
| 20260510194538 | 22 | 294 | 1.6 | 4.8 | 0.00 | 0.00 | 0.00 | 38 | 1011.9 |
| 20260510193052 | 22 | 0 | 1.6 | 6.4 | 0.00 | 0.00 | 0.00 | 37 | 1011.6 |
| 20260510191537 | 23 | 16 | 3.2 | 11.3 | 0.00 | 0.00 | 0.00 | 35 | 1011.5 |
| 20260510190036 | 22 | 288 | 6.4 | 19.3 | 0.00 | 0.00 | 0.00 | 34 | 1011.4 |
| 20260510184537 | 23 | 230 | 12.9 | 30.6 | 0.00 | 0.00 | 0.00 | 35 | 1011.3 |
| 20260510183046 | 23 | 270 | 11.3 | 45.1 | 0.00 | 0.00 | 0.00 | 34 | 1011.4 |
| 20260510181536 | 23 | 205 | 14.5 | 35.4 | 0.00 | 0.00 | 0.00 | 33 | 1011.2 |
| 20260510180046 | 23 | 192 | 20.9 | 40.2 | 0.00 | 0.00 | 0.00 | 33 | 1011.3 |
| 20260510174532 | 23 | 210 | 25.7 | 38.6 | 0.00 | 0.00 | 0.00 | 32 | 1011.1 |
| 20260510173037 | 24 | 237 | 17.7 | 37.0 | 0.00 | 0.00 | 0.00 | 33 | 1011.1 |
| 20260510171537 | 24 | 235 | 16.1 | 37.0 | 0.00 | 0.00 | 0.00 | 33 | 1011.0 |
| 20260510170040 | 25 | 197 | 14.5 | 32.2 | 0.00 | 0.00 | 0.00 | 32 | 1011.0 |
| 20260510164548 | 25 | 196 | 11.3 | 30.6 | 0.00 | 0.00 | 0.00 | 31 | 1011.0 |
| 20260510163043 | 25 | 191 | 14.5 | 30.6 | 0.00 | 0.00 | 0.00 | 30 | 1011.1 |
| 20260510161543 | 25 | 140 | 8.0 | 27.4 | 0.00 | 0.00 | 0.00 | 29 | 1011.1 |
| 20260510160051 | 25 | 133 | 11.3 | 29.0 | 0.00 | 0.00 | 0.00 | 29 | 1011.0 |
| 20260510154540 | 26 | 124 | 11.3 | 46.7 | 0.00 | 0.00 | 0.00 | 29 | 1010.9 |
| 20260510153036 | 25 | 132 | 16.1 | 38.6 | 0.00 | 0.00 | 0.00 | 30 | 1011.0 |
| 20260510151534 | 25 | 170 | 11.3 | 33.8 | 0.00 | 0.00 | 0.00 | 30 | 1011.2 |
| 20260510150034 | 25 | 169 | 9.7 | 30.6 | 0.00 | 0.00 | 0.00 | 30 | 1011.3 |
| 20260510144537 | 26 | 207 | 9.7 | 37.0 | 0.00 | 0.00 | 0.00 | 30 | 1011.3 |
| 20260510143044 | 26 | 106 | 12.9 | 32.2 | 0.00 | 0.00 | 0.00 | 29 | 1011.4 |
| 20260510141536 | 26 | 142 | 12.9 | 29.0 | 0.00 | 0.00 | 0.00 | 30 | 1011.5 |
| 20260510140035 | 26 | 180 | 6.4 | 22.5 | 0.00 | 0.00 | 0.00 | 30 | 1011.9 |
| 20260510134539 | 26 | 105 | 8.0 | 22.5 | 0.00 | 0.00 | 0.00 | 30 | 1012.0 |
| 20260510133038 | 25 | 108 | 6.4 | 22.5 | 0.00 | 0.00 | 0.00 | 32 | 1012.2 |
| 20260510131538 | 26 | 355 | 11.3 | 33.8 | 0.00 | 0.00 | 0.00 | 33 | 1012.4 |
| 20260510130038 | 25 | 164 | 11.3 | 35.4 | 0.00 | 0.00 | 0.00 | 34 | 1012.5 |
| 20260510124556 | 23 | 193 | 16.1 | 32.2 | 0.00 | 0.00 | 0.00 | 43 | 1012.8 |
| 20260510123033 | 23 | 83 | 11.3 | 29.0 | 0.00 | 0.00 | 0.00 | 48 | 1013.2 |
| 20260510121538 | 22 | 105 | 1.6 | 12.9 | 0.00 | 0.00 | 0.00 | 49 | 1013.6 |
| 20260510120038 | 22 | 53 | 12.9 | 24.1 | 0.00 | 0.00 | 0.00 | 52 | 1013.7 |
| 20260510114541 | 22 | 127 | 9.7 | 19.3 | 0.00 | 0.00 | 0.00 | 49 | 1014.1 |
| 20260510113037 | 22 | 89 | 8.0 | 22.5 | 0.00 | 0.00 | 0.00 | 46 | 1014.3 |
| 20260510111557 | 24 | 131 | 14.5 | 25.7 | 0.00 | 0.00 | 0.00 | 44 | 1014.4 |
| 20260510110039 | 24 | 90 | 8.0 | 17.7 | 0.00 | 0.00 | 0.00 | 42 | 1014.5 |
| 20260510104547 | 23 | 46 | 6.4 | 16.1 | 0.00 | 0.10 | 0.00 | 43 | 1014.6 |
| 20260510103039 | 23 | 79 | 3.2 | 14.5 | 0.00 | 0.10 | 0.00 | 42 | 1014.7 |
| 20260510101533 | 22 | 81 | 8.0 | 14.5 | 0.00 | 0.10 | 0.00 | 43 | 1014.9 |
| 20260510100036 | 22 | 98 | 6.4 | 14.5 | 0.00 | 0.10 | 0.00 | 44 | 1015.0 |
| 20260510094544 | 21 | 85 | 4.8 | 11.3 | 0.00 | 0.36 | 0.00 | 47 | 1015.0 |
| 20260510093041 | 21 | 0 | 0.0 | 11.3 | 0.00 | 0.36 | 0.00 | 50 | 1015.2 |
| 20260510091550 | 21 | 88 | 4.8 | 11.3 | 0.00 | 0.36 | 0.00 | 50 | 1015.3 |
| 20260510090037 | 20 | 101 | 4.8 | 12.9 | 0.00 | 0.36 | 0.00 | 53 | 1015.2 |
| 20260510084537 | 20 | 111 | 1.6 | 6.4 | 0.00 | 0.46 | 0.00 | 53 | 1015.5 |
| 20260510083038 | 19 | 62 | 1.6 | 6.4 | 0.00 | 0.46 | 0.00 | 55 | 1015.5 |
| 20260510081544 | 19 | 101 | 1.6 | 4.8 | 0.00 | 0.46 | 0.00 | 57 | 1015.5 |
| 20260510080040 | 18 | 89 | 4.8 | 11.3 | 0.00 | 0.46 | 0.00 | 59 | 1015.5 |
| 20260510074536 | 17 | 0 | 1.6 | 6.4 | 0.00 | 0.64 | 0.00 | 61 | 1015.5 |
| 20260510073040 | 17 | 0 | 0.0 | 0.0 | 0.00 | 0.64 | 0.00 | 63 | 1015.7 |
| 20260510071539 | 16 | 0 | 0.0 | 0.0 | 0.00 | 0.64 | 0.00 | 66 | 1015.7 |
| 20260510070044 | 15 | 0 | 0.0 | 0.0 | 0.00 | 0.64 | 0.00 | 67 | 1015.5 |
| 20260510064556 | 15 | 0 | 0.0 | 3.2 | 0.00 | 0.79 | 0.00 | 68 | 1015.5 |
| 20260510063044 | 14 | 0 | 1.6 | 6.4 | 0.00 | 0.79 | 0.00 | 68 | 1015.3 |
| 20260510061546 | 13 | 0 | 0.0 | 1.6 | 0.00 | 0.79 | 0.00 | 68 | 1015.3 |
| 20260510060040 | 13 | 0 | 0.0 | 6.4 | 0.00 | 0.79 | 0.00 | 68 | 1015.4 |
| 20260510054534 | 13 | 284 | 1.6 | 6.4 | 0.00 | 0.79 | 0.00 | 68 | 1015.1 |
| 20260510053035 | 13 | 0 | 0.0 | 0.0 | 0.00 | 0.79 | 0.00 | 67 | 1015.0 |
| 20260510051534 | 13 | 0 | 0.0 | 3.2 | 0.00 | 0.79 | 0.00 | 67 | 1014.9 |
| 20260510050039 | 13 | 281 | 0.0 | 6.4 | 0.00 | 0.79 | 0.00 | 67 | 1015.0 |
| 20260510044538 | 13 | 0 | 0.0 | 0.0 | 0.00 | 0.79 | 0.00 | 67 | 1015.0 |
| 20260510043034 | 13 | 0 | 0.0 | 0.0 | 0.00 | 0.79 | 0.00 | 67 | 1015.0 |
| 20260510041536 | 13 | 0 | 0.0 | 0.0 | 0.00 | 0.79 | 0.00 | 66 | 1014.8 |
| 20260510040039 | 13 | 0 | 0.0 | 0.0 | 0.00 | 0.79 | 0.00 | 66 | 1014.7 |
| 20260510034544 | 13 | 0 | 0.0 | 0.0 | 0.00 | 0.79 | 0.00 | 66 | 1014.9 |
| 20260510033038 | 13 | 0 | 0.0 | 0.0 | 0.00 | 0.79 | 0.00 | 65 | 1014.7 |
| 20260510031536 | 13 | 0 | 0.0 | 3.2 | 0.00 | 0.79 | 0.00 | 65 | 1014.7 |
| 20260510030034 | 13 | 279 | 0.0 | 6.4 | 0.00 | 0.79 | 0.00 | 64 | 1014.6 |
| 20260510024544 | 14 | 0 | 0.0 | 0.0 | 0.00 | 0.79 | 0.00 | 64 | 1014.6 |
| 20260510023038 | 15 | 0 | 0.0 | 0.0 | 0.00 | 0.79 | 0.00 | 64 | 1014.6 |
| 20260510021538 | 15 | 0 | 0.0 | 0.0 | 0.00 | 0.79 | 0.00 | 64 | 1014.6 |
| 20260510020033 | 16 | 0 | 0.0 | 0.0 | 0.00 | 0.79 | 0.00 | 64 | 1014.6 |
| 20260510014539 | 16 | 0 | 0.0 | 0.0 | 0.00 | 0.79 | 0.00 | 64 | 1014.4 |
| 20260510013042 | 15 | 0 | 0.0 | 0.0 | 0.00 | 0.79 | 0.00 | 64 | 1014.4 |
| 20260510011533 | 15 | 0 | 0.0 | 3.2 | 0.00 | 0.79 | 0.00 | 64 | 1014.6 |
| 20260510010038 | 15 | 0 | 0.0 | 4.8 | 0.00 | 0.79 | 0.00 | 65 | 1014.6 |
| 20260510004537 | 15 | 0 | 0.0 | 0.0 | 0.00 | 0.79 | 0.00 | 64 | 1014.9 |
| 20260510003044 | 15 | 0 | 0.0 | 0.0 | 0.00 | 0.79 | 0.00 | 64 | 1014.9 |
| 20260510001532 | 15 | 0 | 0.0 | 0.0 | 0.00 | 0.79 | 0.00 | 64 | 1014.9 |
| 20260510000033 | 15 | 0 | 0.0 | 0.0 | 0.00 | 0.79 | 0.00 | 64 | 1014.8 |
| 20260509234555 | 15 | 0 | 0.0 | 0.0 | 0.00 | 0.79 | 0.00 | 63 | 1015.1 |
| 20260509233045 | 15 | 0 | 0.0 | 0.0 | 0.00 | 0.79 | 0.00 | 63 | 1015.2 |
| 20260509231540 | 15 | 0 | 0.0 | 0.0 | 0.00 | 0.79 | 0.00 | 62 | 1015.3 |
| 20260509230032 | 15 | 0 | 0.0 | 0.0 | 0.00 | 0.79 | 0.00 | 62 | 1015.4 |
| 20260509224537 | 16 | 0 | 0.0 | 3.2 | 0.00 | 0.79 | 0.00 | 61 | 1015.3 |
| 20260509223038 | 16 | 202 | 0.0 | 4.8 | 0.00 | 0.79 | 0.00 | 61 | 1015.3 |
| 20260509221537 | 16 | 0 | 1.6 | 3.2 | 0.00 | 0.79 | 0.00 | 60 | 1015.3 |
| 20260509220038 | 16 | 0 | 0.0 | 3.2 | 0.00 | 0.79 | 0.00 | 59 | 1015.2 |
| 20260509214533 | 17 | 0 | 1.6 | 3.2 | 0.00 | 0.79 | 0.79 | 58 | 1015.1 |
| 20260509213039 | 17 | 0 | 0.0 | 1.6 | 0.00 | 0.79 | 0.79 | 57 | 1015.0 |
| 20260509211544 | 17 | 134 | 1.6 | 8.0 | 0.00 | 0.79 | 0.79 | 57 | 1014.9 |